[[{"header":{"parameterUnit":"m.s-1","parameterCategory":1,"la1":30.2991,"la2":30.254,"lo1":-89.0895,"lo2":-89.0444,"dy":0.0017,"dx":0.0017,"nx":28,"ny":28,"refTime":"2025-05-19T09:00:00:Z","depth":0,"parameterNumber":2,"parameterNumberName":"U-component_of_WINDS"},"data":[0,0,0,0,0,0,0,0,0,0,0,0,0,0,0,0,0,0,0,0,0,0,0,0,0,0,0,0,0,0,0,0,0,0,0,0,0,0,0,0,0,0,0,0,0,0,0,0,0,0,0,0,0,0,0,0,0,0,0.5198,0.5198,0,0.5221,0.5221,0.5222,0.5218,0.5218,0.5217,0.5217,0.524,0.5241,0.5242,0,0,0,0,0,0,0,0,0,0,0,0,0,0.5149,0.515,0.5198,0.5198,0.5198,0.5221,0.5221,0.5222,0.5218,0.5218,0.5217,0.5217,0.524,0.5241,0.5242,0,0,0,0,0,0,0,0,0,0,0,0,0,0.5171,0.5151,0.5198,0.5199,0.52,0.5221,0.5221,0.5222,0.5218,0.5218,0.5217,0.5217,0.5239,0.5241,0.5242,0.5263,0,0,0.5247,0.5247,0,0,0,0,0,0,0,0,0.517,0.5173,0.5199,0.5199,0.52,0.5216,0.5213,0.5236,0.5218,0.5211,0.5217,0.5216,0.5233,0.5234,0.524,0.5264,0.5265,0.5247,0.5248,0.5248,0.5249,0,0,0,0,0,0,0,0.5169,0.5172,0.5207,0.5199,0.52,0.5199,0.5201,0.5217,0.5225,0.5212,0.5212,0.5215,0.5233,0.5239,0.5241,0.5265,0.5247,0.5248,0.5249,0.525,0.5307,0.5307,0,0,0,0,0,0,0.5167,0.5171,0.5206,0.5208,0.5183,0.52,0.5203,0.5212,0.5225,0.5226,0.5215,0.5214,0.5236,0.5239,0.5241,0.5266,0.5248,0.525,0.525,0.5306,0.5307,0.5308,0,0,0,0,0,0,0.5166,0.517,0.5205,0.5189,0.5194,0.5201,0.5211,0.5212,0.5218,0.5227,0.5228,0.522,0.5236,0.5239,0.5258,0.5267,0.525,0.5252,0.5305,0.5306,0.5307,0.5317,0,0,0,0,0,0,0.5164,0.517,0.5178,0.5189,0.5195,0.5222,0.5212,0.5213,0.5221,0.522,0.5232,0.5233,0.5236,0.5255,0.5259,0.5269,0.5253,0.5305,0.5306,0.5307,0.5316,0.5318,0.532,0,0,0,0,0,0.5163,0.518,0.5178,0.5183,0.5205,0.5222,0.5225,0.5228,0.5222,0.523,0.5235,0.5233,0.5265,0.5257,0.5261,0.5272,0.5304,0.5305,0.5307,0.5315,0.5317,0.532,0,0,0,0,0,0,0.5169,0.5181,0.518,0.5201,0.5211,0.5222,0.5232,0.5231,0.5242,0.5241,0.5244,0.5246,0.5265,0.527,0.5261,0.5292,0.5284,0.5286,0.5288,0.5291,0.5293,0.5292,0.5254,0,0,0,0,0,0.5173,0.5186,0.5196,0.5213,0.5218,0.5224,0.5232,0.5233,0.5243,0.5247,0.5254,0.5263,0.5275,0.5283,0.5295,0.5316,0.5318,0.5325,0.5327,0.5329,0.5331,0.5342,0.5345,0.5312,0.5312,0.5312,0,0,0.5181,0.5189,0.5197,0.5215,0.5222,0.5236,0.5228,0.5242,0.5252,0.5249,0.5267,0.5272,0.5282,0.5302,0.5311,0.5307,0.5341,0.5331,0.5332,0.5333,0.5344,0.5347,0.535,0.5313,0.5313,0.5313,0,0,0.5202,0.521,0.5226,0.5233,0.5245,0.5249,0.5252,0.5263,0.5267,0.5284,0.5282,0.5294,0.5315,0.5322,0.5329,0.5352,0.535,0.5356,0.5367,0.5378,0.5381,0.5383,0.5391,0.5394,0.5358,0.5358,0.5358,0,0.5211,0.5231,0.5234,0.5248,0.5256,0.5254,0.527,0.5277,0.5291,0.5296,0.5292,0.5318,0.5325,0.5346,0.5352,0.5357,0.5361,0.5355,0.538,0.5383,0.5385,0.5393,0.5396,0.5359,0.5359,0.5358,0.5358,0,0.5241,0.5255,0.5266,0.5281,0.5289,0.5304,0.5309,0.5317,0.5317,0.5322,0.5339,0.5347,0.5361,0.5366,0.5366,0.5387,0.5384,0.538,0.5371,0.5388,0.5396,0.5399,0.536,0.5359,0.5359,0.5359,0,0,0.5268,0.5283,0.5287,0.5294,0.5306,0.5316,0.5331,0.5344,0.5351,0.5361,0.5373,0.539,0.5387,0.5394,0.5395,0.5404,0.5422,0.5399,0.5399,0.5403,0.5445,0.5449,0.5452,0.5421,0.5421,0.5422,0.5445,0,0.5291,0.5317,0.532,0.5343,0.5356,0.5354,0.5366,0.5375,0.5379,0.5389,0.5394,0.5406,0.54,0.5404,0.5413,0.5418,0.5431,0.5417,0.5432,0.5432,0.543,0.5456,0.546,0.5481,0.5448,0.5448,0.5448,0,0.5322,0.5333,0.5357,0.5367,0.5373,0.5384,0.5396,0.5406,0.5416,0.5418,0.5426,0.5425,0.544,0.543,0.545,0.544,0.5446,0.5449,0.545,0.5452,0.5442,0.5459,0.5488,0.5491,0.5453,0.5453,0.5452,0,0.5339,0.536,0.5377,0.5383,0.5395,0.5402,0.5408,0.5416,0.5424,0.5434,0.5439,0.545,0.5457,0.5466,0.5468,0.5461,0.5488,0.5478,0.549,0.549,0.5496,0.5495,0.5526,0.5499,0.5499,0.5499,0.5499,0,0.5365,0.538,0.5385,0.5396,0.5412,0.5415,0.5431,0.5436,0.5443,0.5455,0.5453,0.5463,0.5466,0.5477,0.5479,0.5494,0.5497,0.5499,0.55,0.55,0.5499,0.5504,0.5503,0.55,0.55,0.55,0.5499,0,0.5387,0.5391,0.541,0.542,0.5422,0.5434,0.5442,0.5452,0.5456,0.547,0.5473,0.5479,0.5491,0.5494,0.5509,0.5511,0.5529,0.5528,0.5526,0.5526,0.5537,0.5536,0.5572,0.5577,0.5547,0.5547,0.5547,0,0.5403,0.5415,0.5426,0.5433,0.5439,0.5451,0.5459,0.5461,0.5469,0.548,0.5489,0.5501,0.5511,0.5531,0.5536,0.5547,0.5546,0.5558,0.5548,0.5548,0.5547,0.5546,0.5547,0.556,0.5561,0.5561,0.5561,0,0.5432,0.5433,0.5444,0.5456,0.5466,0.5475,0.5484,0.549,0.5493,0.5502,0.5515,0.5523,0.5538,0.555,0.5561,0.5566,0.5564,0.5564,0.5567,0.5568,0.5566,0.5567,0.5532,0.5564,0.5563,0.5563,0.5563,0.5563,0.5452,0.5462,0.5471,0.5483,0.549,0.5499,0.5509,0.5513,0.5524,0.5537,0.5537,0.5551,0.5559,0.5574,0.558,0.559,0.5587,0.5591,0.5592,0.5594,0.5595,0.5564,0.5592,0.5592,0.5592,0.5592,0.5592,0,0.548,0.5486,0.5497,0.551,0.5519,0.5517,0.5526,0.5535,0.5547,0.5555,0.5565,0.5579,0.5591,0.5597,0.5608,0.5615,0.5615,0.5618,0.5618,0.5619,0.5597,0.5593,0.5618,0.5618,0.5618,0.5618,0.5618,0.5618,0.5496,0.5513,0.5515,0.5535,0.5541,0.5555,0.556,0.5568,0.5574,0.5591,0.56,0.5604,0.5611,0.5623,0.5633,0.5634,0.5638,0.5642,0.5643,0.5623,0.562,0.5618,0.5614,0.5643,0.5643,0.5664,0.5664,0.5664]},{"header":{"parameterUnit":"m.s-1","parameterCategory":1,"la1":30.2991,"la2":30.254,"lo1":-89.0895,"lo2":-89.0444,"dy":0.0017,"dx":0.0017,"nx":28,"ny":28,"refTime":"2025-05-19T09:00:00:Z","depth":0,"parameterNumber":3,"parameterNumberName":"V-component_of_WINDS"},"data":[0,0,0,0,0,0,0,0,0,0,0,0,0,0,0,0,0,0,0,0,0,0,0,0,0,0,0,0,0,0,0,0,0,0,0,0,0,0,0,0,0,0,0,0,0,0,0,0,0,0,0,0,0,0,0,0,0,0,6.3698,6.3699,0,6.3779,6.378,6.3781,6.3776,6.3775,6.3774,6.3772,6.3847,6.385,6.3853,0,0,0,0,0,0,0,0,0,0,0,0,0,6.3529,6.3532,6.3698,6.3699,6.37,6.3779,6.378,6.3781,6.3776,6.3775,6.3773,6.3772,6.3846,6.385,6.3854,0,0,0,0,0,0,0,0,0,0,0,0,0,6.3605,6.3533,6.3698,6.3707,6.3709,6.3779,6.378,6.3782,6.3776,6.3775,6.3773,6.3771,6.3845,6.385,6.3854,6.3918,0,0,6.3868,6.387,0,0,0,0,0,0,0,0,6.3601,6.3611,6.3705,6.3707,6.3709,6.3766,6.3748,6.3827,6.3777,6.375,6.3772,6.377,6.3821,6.3828,6.3846,6.3921,6.3924,6.3869,6.3871,6.3873,6.3875,0,0,0,0,0,0,0,6.3596,6.3608,6.373,6.3706,6.3708,6.3704,6.3713,6.3763,6.3794,6.3753,6.3752,6.3763,6.3822,6.3842,6.3848,6.3926,6.3869,6.3873,6.3875,6.3877,6.4057,6.4058,0,0,0,0,0,0,6.3589,6.3603,6.3727,6.3732,6.365,6.3709,6.3719,6.3749,6.3794,6.3799,6.3764,6.3762,6.3835,6.3843,6.3851,6.3929,6.3873,6.3878,6.388,6.4055,6.4057,6.4059,0,0,0,0,0,0,6.3586,6.3601,6.3724,6.3668,6.3683,6.3714,6.3748,6.3752,6.3772,6.3803,6.3807,6.378,6.3834,6.3844,6.3902,6.3931,6.388,6.3884,6.4052,6.4055,6.4058,6.4085,0,0,0,0,0,0,6.3581,6.3599,6.3626,6.3669,6.3687,6.3776,6.375,6.3754,6.3781,6.3779,6.3819,6.3823,6.3833,6.3895,6.3906,6.3937,6.3888,6.405,6.4054,6.4057,6.4082,6.4089,6.4095,0,0,0,0,0,6.3575,6.3628,6.3627,6.3642,6.3721,6.3778,6.3788,6.3801,6.3784,6.3809,6.3829,6.3822,6.3926,6.3901,6.3914,6.3946,6.4048,6.4053,6.4057,6.4079,6.4088,6.4095,0,0,0,0,0,0,6.3585,6.3634,6.3634,6.3703,6.3737,6.3777,6.381,6.3809,6.3847,6.3843,6.3855,6.3864,6.3922,6.3939,6.391,6.401,6.3984,6.3992,6.3997,6.4005,6.4011,6.4006,6.3891,0,0,0,0,0,6.3596,6.3641,6.368,6.3737,6.3755,6.378,6.3805,6.3812,6.3847,6.386,6.3884,6.3915,6.3955,6.3981,6.4019,6.4084,6.4092,6.4112,6.4119,6.4124,6.413,6.4166,6.4175,6.4074,6.4074,6.4074,0,0,6.3617,6.365,6.3677,6.374,6.3767,6.3812,6.3792,6.3839,6.3871,6.3866,6.3924,6.3942,6.3977,6.4039,6.4067,6.4055,6.416,6.413,6.4133,6.4137,6.4172,6.4181,6.419,6.4077,6.4076,6.4076,0,0,6.368,6.3709,6.3761,6.3789,6.3832,6.3848,6.386,6.3901,6.3914,6.3972,6.397,6.4006,6.4075,6.41,6.4122,6.4195,6.419,6.4206,6.424,6.4275,6.4283,6.429,6.4317,6.4326,6.4212,6.4213,6.4213,0,6.37,6.3771,6.3786,6.3836,6.3863,6.3863,6.3914,6.3939,6.3991,6.4009,6.3995,6.4082,6.4105,6.4173,6.4191,6.4209,6.4222,6.4203,6.4281,6.4289,6.4295,6.4321,6.433,6.4214,6.4214,6.4214,6.4214,0,6.3794,6.3842,6.3878,6.3932,6.3963,6.4012,6.4033,6.4062,6.4067,6.4083,6.4142,6.417,6.4215,6.4231,6.4234,6.43,6.4291,6.4279,6.4254,6.4307,6.4331,6.434,6.4217,6.4216,6.4216,6.4215,0,0,6.3865,6.3929,6.3942,6.3966,6.4013,6.4049,6.4098,6.4144,6.4169,6.4204,6.4244,6.4302,6.4292,6.4317,6.4323,6.4353,6.4409,6.4337,6.4338,6.435,6.4483,6.4493,6.4504,6.4406,6.4408,6.4409,6.448,0,6.3934,6.4024,6.404,6.4118,6.4162,6.4163,6.4205,6.4236,6.4253,6.4291,6.4308,6.4349,6.4332,6.4348,6.4378,6.4396,6.4436,6.4391,6.4442,6.4444,6.4435,6.4516,6.4526,6.4592,6.449,6.4491,6.4492,0,6.4026,6.4067,6.4151,6.4193,6.4212,6.425,6.4294,6.433,6.4366,6.4375,6.4404,6.4406,6.4454,6.4427,6.4492,6.4461,6.4482,6.4494,6.4497,6.4503,6.4472,6.4525,6.4613,6.4623,6.4507,6.4506,6.4505,0,6.4071,6.4147,6.4207,6.4228,6.4278,6.4304,6.4326,6.436,6.4387,6.4424,6.4441,6.4482,6.4504,6.4535,6.4547,6.4526,6.4612,6.4585,6.462,6.462,6.4639,6.4638,6.4733,6.4651,6.4651,6.4651,6.4651,0,6.4146,6.4197,6.4228,6.4265,6.4322,6.4337,6.4392,6.4412,6.4442,6.4481,6.4482,6.4518,6.4532,6.457,6.4579,6.4632,6.4641,6.465,6.4652,6.465,6.465,6.4665,6.4661,6.4654,6.4653,6.4653,6.4652,0,6.4206,6.4229,6.4295,6.4338,6.435,6.439,6.4425,6.4459,6.4476,6.4525,6.4537,6.4562,6.4606,6.4622,6.4674,6.4681,6.4742,6.474,6.4732,6.4732,6.4767,6.4764,6.4876,6.4892,6.4799,6.48,6.48,0,6.4253,6.4293,6.4342,6.437,6.4393,6.4437,6.4466,6.4482,6.4511,6.4555,6.4584,6.4628,6.4665,6.4735,6.4756,6.4796,6.4795,6.4831,6.4801,6.4798,6.4796,6.4794,6.4798,6.4837,6.4838,6.4839,6.484,0,6.4335,6.4345,6.4388,6.4435,6.447,6.4507,6.4542,6.4564,6.4585,6.4617,6.4664,6.4693,6.4748,6.4792,6.4833,6.4852,6.4849,6.4849,6.486,6.4859,6.4853,6.4858,6.4748,6.4847,6.4846,6.4845,6.4845,6.4845,6.4391,6.4427,6.4467,6.4515,6.4544,6.4577,6.4613,6.4635,6.4675,6.4724,6.4729,6.478,6.4813,6.4868,6.4889,6.4927,6.4916,6.4931,6.4935,6.4939,6.4942,6.4847,6.4934,6.4934,6.4933,6.4933,6.4933,0,6.4473,6.45,6.4544,6.4595,6.4632,6.4629,6.4668,6.4699,6.4744,6.4777,6.4814,6.4867,6.491,6.4935,6.4977,6.5002,6.5002,6.5013,6.5011,6.5016,6.4948,6.4936,6.5012,6.5012,6.5012,6.5012,6.5012,6.5012,6.4521,6.4582,6.4596,6.4671,6.4696,6.4748,6.4771,6.4801,6.4827,6.4888,6.4925,6.4942,6.4971,6.5015,6.5053,6.5059,6.5075,6.5087,6.5092,6.5028,6.502,6.5013,6.5001,6.509,6.509,6.5156,6.5157,6.5157]}]]